Kapolei, HI

9:19 PM HST on January 17, 2017 (GMT -1000)
Kalaeloa (John Rodgers Field)

Weather History for PHJR - September, 2013

Change the Weather History Date:

Friday, September 6, 2013

  Actual Average (PHNL) Record (PHNL)
Temperature  
Mean Temperature 75 °F -  
Max Temperature 84 °F 89 °F 94 °F (1988)
Min Temperature 66 °F 74 °F 68 °F (1982)
Cooling Degree Days 10    
Growing Degree Days 25 (Base 50)    
Moisture  
Dew Point 66 °F    
Average Humidity 73    
Maximum Humidity 90    
Minimum Humidity 56    
Precipitation  
Precipitation 0.00 in - - ()
Sea Level Pressure  
Sea Level Pressure 30.09 in    
Wind  
Wind Speed 2 mph (South)    
Max Wind Speed 12 mph    
Max Gust Speed -    
Visibility 10 miles    
Events      
Averages and records for this station are not official NWS values.
T = Trace of Precipitation, MM = Missing Value Source: NWS Daily Summary

Daily Weather History Graph

Daily Weather History Graph

Search for Another Location

Airport or City:

Trip Planner

Search our weather history database for the weather conditions in past years. The results will help you decide how hot, cold, wet, or windy it might be!

Date:

Astronomy

Sep. 06, 2013 Rise Set
Actual Time 6:17 AM HST 6:43 PM HST
Civil Twilight 5:54 AM HST 7:05 PM HST
Nautical Twilight 5:28 AM HST 7:31 PM HST
Astronomical Twilight 5:02 AM HST 7:58 PM HST
Moon 7:24 AM HST (9/6) 7:34 PM HST (9/6)
Length of Visible Light 13h 10m
Length of Day
12h 26m
New Moon, 2% of the Moon is Illuminated
Sep 6
New Moon
Sep 12
First Quarter
Sep 19
Full
Sep 26
Last Quarter
Oct 4
New

Hourly Weather History & Observations

Time (HST) Temp. Heat Index Dew Point Humidity Pressure Visibility Wind Dir Wind Speed Gust Speed Precip Events Conditions
12:53 AM 71.1 °F - 64.9 °F 81% 30.11 in 10.0 mi Calm Calm - N/A   Clear
1:31 AM 69.8 °F - 64.4 °F 83% 30.08 in 10.0 mi Calm Calm - N/A   Partly Cloudy
1:53 AM 69.1 °F - 64.0 °F 84% 30.09 in 10.0 mi Calm Calm - N/A   Clear
2:53 AM 68.0 °F - 64.0 °F 87% 30.09 in 10.0 mi Calm Calm - N/A   Clear
3:53 AM 68.0 °F - 64.9 °F 90% 30.08 in 10.0 mi Calm Calm - N/A   Partly Cloudy
4:53 AM 68.0 °F - 64.0 °F 87% 30.08 in 10.0 mi Calm Calm - N/A   Clear
5:53 AM 66.9 °F - 64.0 °F 90% 30.09 in 10.0 mi Calm Calm - N/A   Clear
6:53 AM 68.0 °F - 64.9 °F 90% 30.10 in 10.0 mi Calm Calm - N/A   Clear
7:53 AM 77.0 °F - 66.9 °F 71% 30.11 in 10.0 mi Calm Calm - N/A   Clear
8:53 AM 81.0 °F 83.0 °F 66.0 °F 60% 30.12 in 10.0 mi Calm Calm - N/A   Clear
9:53 AM 81.0 °F 83.3 °F 66.9 °F 62% 30.12 in 10.0 mi SE 9.2 mph - N/A   Clear
10:53 AM 82.9 °F 85.0 °F 66.0 °F 56% 30.11 in 10.0 mi SE 9.2 mph - N/A   Clear
11:53 AM 82.9 °F 87.0 °F 70.0 °F 65% 30.09 in 10.0 mi SE 11.5 mph - N/A   Scattered Clouds
12:53 PM 84.9 °F 88.8 °F 69.1 °F 59% 30.08 in 10.0 mi SE 11.5 mph - N/A   Clear
1:53 PM 81.0 °F 84.1 °F 69.1 °F 67% 30.07 in 10.0 mi South 5.8 mph - N/A   Overcast
2:53 PM 81.0 °F 84.1 °F 69.1 °F 67% 30.06 in 10.0 mi SW 5.8 mph - N/A   Partly Cloudy
3:53 PM 82.9 °F 86.5 °F 69.1 °F 63% 30.04 in 10.0 mi WSW 9.2 mph - N/A   Partly Cloudy
4:53 PM 82.0 °F 84.9 °F 68.0 °F 62% 30.04 in 10.0 mi SW 9.2 mph - N/A   Scattered Clouds
5:53 PM 79.0 °F - 68.0 °F 69% 30.06 in 10.0 mi Variable 3.5 mph - 0.00 in   Overcast
6:53 PM 78.1 °F - 64.9 °F 64% 30.07 in 10.0 mi Calm Calm - N/A   Clear
7:53 PM 75.0 °F - 64.9 °F 71% 30.09 in 10.0 mi Calm Calm - N/A   Clear
8:13 PM 75.2 °F - 64.4 °F 69% 30.08 in 10.0 mi Calm Calm - N/A   Partly Cloudy
8:53 PM 73.9 °F - 64.9 °F 73% 30.11 in 10.0 mi Calm Calm - N/A   Partly Cloudy
9:53 PM 73.0 °F - 64.9 °F 76% 30.12 in 10.0 mi Calm Calm - N/A   Clear
10:27 PM 73.4 °F - 64.4 °F 73% 30.09 in 10.0 mi Calm Calm - N/A   Partly Cloudy
10:53 PM 73.0 °F - 64.9 °F 76% 30.11 in 10.0 mi Calm Calm - N/A   Clear
11:10 PM 71.6 °F - 64.4 °F 78% 30.09 in 10.0 mi Calm Calm - N/A   Partly Cloudy
11:53 PM 73.0 °F - 64.9 °F 76% 30.10 in 10.0 mi Calm Calm - N/A   Mostly Cloudy